Keene, NH

1:55 PM EDT on June 23, 2017 (GMT -0400)
Dillant-Hopkins

Weather History for KEEN - February, 2013

Change the Weather History Date:

Sunday, February 3, 2013

  Actual Average Record
Temperature  
Mean Temperature 20 °F -  
Max Temperature 28 °F 32 °F 55 °F (1983)
Min Temperature 12 °F 11 °F -23 °F (1971)
Degree Days  
Heating Degree Days 45    
Moisture  
Dew Point 11 °F    
Average Humidity 65    
Maximum Humidity 86    
Minimum Humidity 43    
Precipitation  
Precipitation 0.00 in - - ()
Sea Level Pressure  
Sea Level Pressure 29.86 in    
Wind  
Wind Speed 1 mph (NW)    
Max Wind Speed 6 mph    
Max Gust Speed -    
Visibility 10 miles    
Events      
Averages and records for this station are not official NWS values.
T = Trace of Precipitation, MM = Missing Value Source: NWS Daily Summary

Daily Weather History Graph

Daily Weather History Graph

Search for Another Location

Airport or City:

Trip Planner

Search our weather history database for the weather conditions in past years. The results will help you decide how hot, cold, wet, or windy it might be!

Date:

Astronomy

Feb. 03, 2013 Rise Set
Actual Time 7:01 AM EST 5:04 PM EST
Civil Twilight 6:31 AM EST 5:34 PM EST
Nautical Twilight 5:57 AM EST 6:08 PM EST
Astronomical Twilight 5:24 AM EST 6:41 PM EST
Moon 12:26 AM EST (2/3) 10:39 AM EST (2/3)
Length of Visible Light 11h 03m
Length of Day
10h 03m
Waning Gibbous, 49% of the Moon is Illuminated
Feb 3
Waning Gibbous
Feb 10
New
Feb 17
First Quarter
Feb 25
Full
Mar 4
Last Quarter

Hourly Weather History & Observations

Time (EST) Temp. Windchill Dew Point Humidity Pressure Visibility Wind Dir Wind Speed Gust Speed Precip Events Conditions
12:15 AM 21.2 °F 14.9 °F 12.2 °F 68% 30.02 in 10.0 mi SW 4.6 mph - N/A   Scattered Clouds
12:36 AM 21.2 °F 16.4 °F 12.2 °F 68% 30.02 in 10.0 mi SW 3.5 mph - N/A   Partly Cloudy
12:55 AM 21.2 °F - 12.2 °F 68% 30.01 in 10.0 mi Calm Calm - N/A   Clear
1:15 AM 21.2 °F - 12.2 °F 68% 30.01 in 10.0 mi Calm Calm - N/A   Partly Cloudy
1:35 AM 21.2 °F 16.4 °F 14.0 °F 74% 30.01 in 10.0 mi North 3.5 mph - N/A   Mostly Cloudy
1:55 AM 21.2 °F - 12.2 °F 68% 30.01 in 10.0 mi Calm Calm - N/A   Scattered Clouds
2:15 AM 21.2 °F - 12.2 °F 68% 30.00 in 10.0 mi Calm Calm - N/A   Scattered Clouds
2:35 AM 19.4 °F - 12.2 °F 74% 29.99 in 10.0 mi Calm Calm - N/A   Scattered Clouds
2:55 AM 19.4 °F - 12.2 °F 74% 29.99 in 10.0 mi Calm Calm - N/A   Partly Cloudy
3:15 AM 19.4 °F - 12.2 °F 74% 29.98 in 10.0 mi Calm Calm - N/A   Mostly Cloudy
3:35 AM 17.6 °F 12.3 °F 12.2 °F 79% 29.98 in 10.0 mi East 3.5 mph - N/A   Mostly Cloudy
3:55 AM 17.6 °F - 12.2 °F 79% 29.97 in 10.0 mi Calm Calm - N/A   Partly Cloudy
4:15 AM 17.6 °F - 12.2 °F 79% 29.97 in 10.0 mi Calm Calm - N/A   Mostly Cloudy
4:35 AM 17.6 °F - 12.2 °F 79% 29.96 in 10.0 mi Calm Calm - N/A   Overcast
4:55 AM 17.6 °F - 12.2 °F 79% 29.96 in 10.0 mi Calm Calm - N/A   Overcast
5:15 AM 17.6 °F - 12.2 °F 79% 29.96 in 10.0 mi Calm Calm - N/A   Overcast
5:35 AM 17.6 °F - 12.2 °F 79% 29.96 in 10.0 mi Calm Calm - N/A   Scattered Clouds
5:55 AM 15.8 °F - 10.4 °F 79% 29.95 in 10.0 mi Calm Calm - N/A   Partly Cloudy
6:15 AM 15.8 °F - 10.4 °F 79% 29.95 in 10.0 mi Calm Calm - N/A   Mostly Cloudy
6:35 AM 15.8 °F - 10.4 °F 79% 29.95 in 10.0 mi Calm Calm - N/A   Scattered Clouds
6:55 AM 14.0 °F - 10.4 °F 86% 29.95 in 10.0 mi Calm Calm - N/A   Partly Cloudy
7:15 AM 14.0 °F - 10.4 °F 86% 29.95 in 10.0 mi Calm Calm - N/A   Clear
7:35 AM 12.2 °F - 8.6 °F 85% 29.95 in 10.0 mi Calm Calm - N/A   Clear
7:55 AM 14.0 °F - 10.4 °F 86% 29.95 in 10.0 mi Calm Calm - N/A   Clear
8:15 AM 15.8 °F - 10.4 °F 79% 29.96 in 10.0 mi Calm Calm - N/A   Clear
8:35 AM 15.8 °F - 10.4 °F 79% 29.96 in 10.0 mi Calm Calm - N/A   Clear
8:55 AM 17.6 °F - 12.2 °F 79% 29.96 in 10.0 mi Calm Calm - N/A   Partly Cloudy
9:15 AM 19.4 °F - 12.2 °F 74% 29.96 in 10.0 mi Calm Calm - N/A   Mostly Cloudy
9:35 AM 19.4 °F - 12.2 °F 74% 29.95 in 10.0 mi Calm Calm - N/A   Partly Cloudy
9:56 AM 21.2 °F 16.4 °F 12.2 °F 68% 29.94 in 10.0 mi North 3.5 mph - N/A   Clear
10:15 AM 21.2 °F 16.4 °F 10.4 °F 63% 29.93 in 10.0 mi North 3.5 mph - N/A   Clear
10:35 AM 23.0 °F 15.8 °F 10.4 °F 59% 29.92 in 10.0 mi North 5.8 mph - N/A   Clear
10:55 AM 24.8 °F 17.9 °F 10.4 °F 54% 29.91 in 10.0 mi ENE 5.8 mph - N/A   Clear
11:35 AM 26.6 °F 21.2 °F 8.6 °F 47% 29.88 in 10.0 mi SSW 4.6 mph - N/A   Mostly Cloudy
11:55 AM 26.6 °F 22.6 °F 8.6 °F 47% 29.86 in 10.0 mi ENE 3.5 mph - N/A   Mostly Cloudy
12:15 PM 26.6 °F 20.0 °F 8.6 °F 47% 29.85 in 10.0 mi North 5.8 mph - N/A   Mostly Cloudy
12:35 PM 26.6 °F 21.2 °F 10.4 °F 51% 29.83 in 10.0 mi West 4.6 mph - N/A   Overcast
12:55 PM 26.6 °F 20.0 °F 10.4 °F 51% 29.82 in 10.0 mi North 5.8 mph - N/A   Overcast
1:15 PM 26.6 °F 22.6 °F 8.6 °F 47% 29.81 in 10.0 mi North 3.5 mph - N/A   Overcast
1:35 PM 26.6 °F 22.6 °F 10.4 °F 51% 29.80 in 10.0 mi NNW 3.5 mph - N/A   Overcast
1:55 PM 28.4 °F - 8.6 °F 43% 29.79 in 10.0 mi Calm Calm - N/A   Overcast
2:15 PM 28.4 °F - 10.4 °F 47% 29.79 in 10.0 mi Calm Calm - N/A   Overcast
2:35 PM 28.4 °F 23.3 °F 10.4 °F 47% 29.78 in 10.0 mi SW 4.6 mph - N/A   Overcast
2:55 PM 28.4 °F - 10.4 °F 47% 29.78 in 10.0 mi Calm Calm - N/A   Overcast
3:15 PM 28.4 °F 23.3 °F 10.4 °F 47% 29.78 in 10.0 mi West 4.6 mph - N/A   Overcast
3:35 PM 28.4 °F - 10.4 °F 47% 29.77 in 10.0 mi Calm Calm - N/A   Overcast
3:55 PM 28.4 °F 24.6 °F 10.4 °F 47% 29.77 in 10.0 mi West 3.5 mph - N/A   Overcast
4:15 PM 28.4 °F - 10.4 °F 47% 29.77 in 10.0 mi Calm Calm - N/A   Overcast
4:35 PM 28.4 °F - 10.4 °F 47% 29.76 in 10.0 mi Calm Calm - N/A   Overcast
4:55 PM 28.4 °F - 10.4 °F 47% 29.76 in 10.0 mi Calm Calm - N/A   Overcast
5:15 PM 26.6 °F - 10.4 °F 51% 29.75 in 10.0 mi Calm Calm - N/A   Overcast
5:35 PM 26.6 °F - 10.4 °F 51% 29.75 in 10.0 mi Calm Calm - N/A   Overcast
5:55 PM 26.6 °F - 12.2 °F 55% 29.75 in 10.0 mi Calm Calm - N/A   Overcast
6:15 PM 26.6 °F - 12.2 °F 55% 29.74 in 10.0 mi Calm Calm - N/A   Scattered Clouds
6:35 PM 24.8 °F - 12.2 °F 59% 29.74 in 10.0 mi Calm Calm - N/A   Mostly Cloudy
6:55 PM 24.8 °F - 12.2 °F 59% 29.75 in 10.0 mi Calm Calm - N/A   Overcast
7:15 PM 24.8 °F - 12.2 °F 59% 29.75 in 10.0 mi Calm Calm - N/A   Overcast
7:35 PM 23.0 °F - 12.2 °F 63% 29.75 in 10.0 mi Calm Calm - N/A   Overcast
7:55 PM 23.0 °F - 12.2 °F 63% 29.75 in 10.0 mi Calm Calm - N/A   Overcast
8:15 PM 23.0 °F - 14.0 °F 68% 29.75 in 10.0 mi Calm Calm - N/A   Mostly Cloudy
8:35 PM 23.0 °F - 15.8 °F 74% 29.75 in 10.0 mi Calm Calm - N/A   Mostly Cloudy
9:15 PM 24.8 °F - 14.0 °F 64% 29.75 in 10.0 mi Calm Calm - N/A   Overcast
9:35 PM 24.8 °F - 12.2 °F 59% 29.75 in 10.0 mi Calm Calm - N/A   Scattered Clouds
9:55 PM 24.8 °F - 14.0 °F 64% 29.74 in 10.0 mi Calm Calm - N/A   Clear
10:15 PM 23.0 °F - 12.2 °F 63% 29.73 in 10.0 mi Calm Calm - N/A   Partly Cloudy
10:35 PM 21.2 °F - 14.0 °F 74% 29.73 in 10.0 mi Calm Calm - N/A   Mostly Cloudy
10:56 PM 21.2 °F - 12.2 °F 68% 29.72 in 10.0 mi Calm Calm - N/A   Mostly Cloudy
11:15 PM 21.2 °F 16.4 °F 12.2 °F 68% 29.73 in 10.0 mi SSW 3.5 mph - N/A   Clear
11:35 PM 21.2 °F - 14.0 °F 74% 29.73 in 10.0 mi Calm Calm - N/A   Clear
11:55 PM 19.4 °F - 10.4 °F 68% 29.72 in 10.0 mi Calm Calm - N/A   Clear